G6UIM Weather Reports


time (UTC)temp
C
wind
direction
speed
KPH
gust
KPH
rain 1hr
cm
rain 24hr
cm
rain mn
cm
humidity
%
barometer
mb
20260505215015 10 0.0 1.6 0.00 0.00 0.00 79 1014.4
20260505214015 11 0.0 4.8 0.00 0.00 0.00 79 1014.4
20260505213017 11 45 1.6 4.8 0.00 0.00 0.00 78 1014.4
20260505212017 11 23 1.6 4.8 0.00 0.00 0.00 78 1014.4
20260505211017 11 0.0 4.8 0.00 0.00 0.00 77 1014.3
20260505210017 11 0 1.6 6.4 0.00 0.00 0.00 76 1014.4
20260505205017 11 23 1.6 4.8 0.00 0.00 0.00 75 1014.3
20260505204018 12 0.0 4.8 0.00 0.00 0.00 73 1014.3
20260505203017 12 0.0 1.6 0.00 0.00 0.00 71 1014.2
20260505202017 12 45 1.6 6.4 0.00 0.00 0.00 70 1014.1
20260505201017 12 0.0 3.2 0.00 0.00 0.00 70 1014.1
20260505200017 13 0.0 0.0 0.00 0.00 0.00 70 1014.1
20260505195017 13 0.0 4.8 0.00 0.00 0.00 69 1013.9
20260505194017 13 0.0 3.2 0.00 0.00 0.00 69 1013.7
20260505193037 13 68 4.8 11.3 0.00 0.00 0.00 69 1013.7
20260505192017 13 45 3.2 9.7 0.00 0.00 0.00 68 1013.6
20260505191017 13 23 4.8 12.9 0.00 0.00 0.00 68 1013.4
20260505190017 14 45 1.6 6.4 0.00 0.00 0.00 68 1013.2
20260505185017 14 68 1.6 6.4 0.00 0.00 0.00 68 1013.3
20260505184017 14 45 3.2 6.4 0.00 0.00 0.00 68 1013.3
20260505183017 14 45 3.2 6.4 0.00 0.00 0.00 68 1013.3
20260505182017 14 45 3.2 8.0 0.00 0.00 0.00 68 1013.3
20260505181017 14 23 1.6 6.4 0.00 0.00 0.00 69 1013.4
20260505180017 14 45 1.6 4.8 0.00 0.00 0.00 69 1013.3
20260505175017 14 0.0 0.0 0.00 0.00 0.00 71 1013.4
20260505174017 14 0.0 0.0 0.00 0.00 0.00 71 1013.3
20260505173018 15 0.0 0.0 0.00 0.00 0.00 74 1013.4
20260505172017 14 0.0 0.0 0.00 0.00 0.00 70 1013.5
20260505171017 15 0.0 0.0 0.00 0.00 0.00 70 1013.5
20260505170057 15 0.0 1.6 0.00 0.00 0.00 69 1013.6
20260505165017 15 0.0 0.0 0.00 0.00 0.00 68 1013.6
20260505164017 15 0.0 0.0 0.00 0.00 0.00 69 1013.7
20260505163017 15 0.0 0.0 0.00 0.00 0.00 69 1013.7
20260505162017 15 135 1.6 6.4 0.00 0.00 0.00 69 1013.7
20260505161017 15 135 1.6 6.4 0.00 0.00 0.00 69 1013.6
20260505153017 15 0.0 0.0 0.00 0.00 0.00 71 1013.8
20260505152017 15 0.0 0.0 0.00 0.00 0.00 70 1013.9
20260505151037 15 0.0 0.0 0.00 0.00 0.00 70 1013.9
20260505125016 14 90 1.6 6.4 0.00 0.00 0.00 76 1014.3
20260505124037 13 90 1.6 4.8 0.00 0.00 0.00 77 1014.4
20260505123016 13 135 3.2 9.7 0.00 0.00 0.00 78 1014.3
20260505122017 13 135 3.2 8.0 0.00 0.00 0.00 78 1014.3
20260505121017 13 135 3.2 6.4 0.00 0.00 0.00 78 1014.3
20260505120017 14 113 1.6 6.4 0.00 0.00 0.00 78 1014.4
20260505115017 14 45 1.6 4.8 0.00 0.00 0.00 78 1014.5
20260505114017 13 135 1.6 8.0 0.00 0.00 0.00 77 1014.6
20260505113017 14 90 1.6 8.0 0.00 0.00 0.00 75 1014.7
20260505112016 15 45 3.2 8.0 0.00 0.00 0.00 76 1014.6
20260505111016 15 338 1.6 8.0 0.00 0.00 0.00 74 1014.8
20260505102016 13 45 3.2 9.7 0.00 0.00 0.00 78 1014.8
20260505101017 13 23 4.8 11.3 0.00 0.00 0.00 78 1014.8
20260505100036 14 45 4.8 8.0 0.00 0.00 0.00 77 1015.0
20260505095016 13 23 3.2 8.0 0.00 0.00 0.00 77 1014.9
20260505094036 13 45 4.8 9.7 0.00 0.00 0.00 78 1014.9
20260505093016 14 23 4.8 12.9 0.00 0.00 0.00 76 1014.9
20260505092016 13 45 6.4 12.9 0.00 0.00 0.00 78 1015.0
20260505091016 13 23 4.8 11.3 0.00 0.00 0.00 77 1014.8
20260505090016 13 45 3.2 12.9 0.00 0.00 0.00 77 1014.9
20260505085016 13 45 4.8 12.9 0.00 0.00 0.00 78 1014.9
20260505084017 12 45 3.2 9.7 0.00 0.00 0.00 79 1014.8
20260505083016 12 23 3.2 11.3 0.00 0.00 0.00 79 1014.8
20260505082016 12 45 4.8 11.3 0.00 0.00 0.00 79 1014.9
20260505081036 12 45 4.8 12.9 0.00 0.00 0.00 79 1014.8
20260505080016 12 23 4.8 11.3 0.00 0.00 0.00 79 1014.8
20260505075036 12 23 3.2 8.0 0.00 0.00 0.00 79 1014.8
20260505074016 12 23 3.2 6.4 0.00 0.00 0.00 80 1014.8
20260505073016 12 23 3.2 8.0 0.00 0.00 0.00 80 1014.8
20260505072016 12 45 4.8 12.9 0.00 0.00 0.00 79 1014.8
20260505071016 12 45 4.8 9.7 0.00 0.00 0.00 79 1014.8
20260505070016 12 23 3.2 9.7 0.00 0.00 0.00 79 1014.9
20260505065016 12 45 4.8 11.3 0.00 0.00 0.00 80 1014.8
20260505064016 12 68 3.2 8.0 0.00 0.00 0.00 81 1014.8
20260505063016 12 45 3.2 6.4 0.00 0.00 0.00 82 1014.8
20260505062016 11 45 3.2 11.3 0.00 0.00 0.00 83 1014.7
20260505061016 11 45 3.2 6.4 0.00 0.00 0.00 84 1014.5
20260505060016 11 0.0 3.2 0.00 0.00 0.00 84 1014.6
20260505055016 11 45 1.6 4.8 0.00 0.00 0.00 84 1014.6
20260505054036 11 45 1.6 6.4 0.00 0.00 0.00 84 1014.5
20260505053036 11 45 1.6 4.8 0.00 0.00 0.00 84 1014.5
20260505052016 11 45 1.6 6.4 0.00 0.00 0.00 84 1014.4
20260505051016 11 45 1.6 4.8 0.00 0.00 0.00 84 1014.5
20260505041036 12 45 1.6 4.8 0.00 0.00 0.00 85 1014.5
20260505040016 12 68 1.6 3.2 0.00 0.00 0.00 85 1014.5
20260505035016 12 0.0 3.2 0.00 0.00 0.00 85 1014.6
20260505034036 12 0.0 3.2 0.00 0.00 0.00 85 1014.6
20260505033016 12 68 1.6 3.2 0.00 0.00 0.00 84 1014.7
20260505032036 12 68 1.6 6.4 0.00 0.00 0.00 84 1014.7
20260505031016 12 45 1.6 6.4 0.00 0.00 0.00 85 1014.7
20260505030016 12 45 1.6 6.4 0.00 0.00 0.00 85 1014.7
20260505025016 12 0.0 1.6 0.00 0.00 0.00 85 1014.6
20260505024016 12 45 1.6 4.8 0.00 0.00 0.00 85 1014.6
20260505023016 12 45 1.6 6.4 0.00 0.00 0.00 85 1014.7
20260505022016 12 45 1.6 4.8 0.00 0.00 0.00 85 1014.7
20260505021016 12 45 1.6 6.4 0.00 0.00 0.00 85 1014.7
20260505020036 12 45 1.6 4.8 0.00 0.00 0.00 84 1014.7
20260505015036 12 68 1.6 8.0 0.00 0.00 0.00 84 1014.8
20260505014015 12 45 1.6 4.8 0.00 0.00 0.00 84 1014.8
20260505013016 12 45 1.6 4.8 0.00 0.00 0.00 84 1014.9
20260505012016 12 23 3.2 6.4 0.00 0.00 0.00 85 1015.1
20260505011016 12 23 1.6 4.8 0.00 0.00 0.00 85 1015.1
20260505010016 12 45 1.6 4.8 0.00 0.00 0.00 85 1015.1
20260505005016 12 45 1.6 4.8 0.00 0.00 0.00 85 1015.2
20260505004016 12 45 1.6 4.8 0.00 0.00 0.00 85 1015.3
20260505003015 12 45 1.6 4.8 0.00 0.00 0.00 85 1015.2
20260505002015 12 45 1.6 4.8 0.00 0.00 0.00 85 1015.3
20260505001016 12 45 1.6 4.8 0.00 0.00 0.00 85 1015.4
20260505000016 12 0.0 3.2 0.00 0.00 0.00 85 1015.4
20260504235015 12 0.0 0.0 0.00 0.00 0.00 85 1015.3
20260504234016 12 0.0 0.0 0.00 0.00 0.00 85 1015.4
20260504233015 12 0.0 0.0 0.00 0.00 0.00 85 1015.4
20260504232036 12 0.0 0.0 0.00 0.00 0.00 84 1015.3
20260504231015 12 0.0 0.0 0.00 0.00 0.00 84 1015.3
20260504230016 12 0.0 0.0 0.00 0.00 0.00 83 1015.4
20260504225017 12 0.0 0.0 0.00 0.00 0.00 82 1015.3
20260504224017 12 0.0 0.0 0.00 0.00 0.00 81 1015.3
20260504223017 11 0.0 0.0 0.00 0.00 0.00 80 1015.4
20260504222017 11 0.0 0.0 0.00 0.00 0.00 80 1015.5
20260504221037 11 0.0 0.0 0.00 0.00 0.00 80 1015.5
20260504220017 11 0.0 0.0 0.00 0.00 0.00 80 1015.6